Terminal Aerodrome Forecast
Issued by NWS

Home | Current Version | Previous Version | Text Only | Print | Product List | Glossary On
Versions: 1 2 3 4 5 6 7 8 9 10 11 12
000
FTUS45 KABQ 271120
TAFROW
TAF
KROW 271120Z 2712/2812 29010KT P6SM SKC
     FM271900 24015G25KT P6SM FEW090
     FM280000 24012KT P6SM FEW090
     FM280300 23008KT P6SM SKC=

USA.gov is the U.S. government's official web portal to all federal, state and local government web resources and services.